Погода в Форт-Нельсон

Канада     58°48′20″N   122°41′45″W
темп.,
°C
ветер,
м/с
пор.,
м/с
влажн.,
%
обл.,
%
осадки,
мм/ч
давл.,
гПа
погр.,
м
6 июля, ср
ср623:00+14ююв117221 0.0 101212
02:00+12ююв22846 0.0 101328
05:00+11ююв11895 0.0 101414
08:00+18юв246075 0.0 1013434
11:00+24юв473791 0.0 10111810
14:00+26юв56305 0.0 10102349
17:00+27юв452955 0.0 10092850
20:00+24юв583766 0.0 10091232
7 июля, чт
чт723:00+17юв31057100 0.0 1010320
02:00+13вюв277492 0.0 1010136
05:00+12вюв238328 0.0 101159
08:00+18вюв356166 0.0 1010501
11:00+23юв354599 0.0 10081462
14:00+27вюв34305 0.0 10062504
17:00+26юв553586 0.0 10051995
20:00+23вюв385022 0.0 1005648
8 июля, пт
пт823:00+16вюв268911 0.2 1006137
02:00+13вюв119718 0.1 100724
05:00+12св119758 0.1 100710
08:00+16св1181100 0.0 1007317
11:00+22юв2355100 0.0 1006995
14:00+24ююв334762 0.0 10051414
17:00+23ююв2352100 0.1 10041037
20:00+17зсз3794100 1.8 1005291
9 июля, сб
сб923:00+14зсз2897100 2.9 1005314
02:00+14з1497100 0.4 1006138
05:00+14зсз21096100 1.6 1005509
08:00+14зсз31094100 0.8 1006594
11:00+19зсз576487 1.1 10051120
14:00+21зсз5754100 0.8 10051528
17:00+22зсз5745100 1.0 10051713
20:00+19сз5953100 0.0 10061005
10 июля, вс
вс1023:00+16сз41258100 0.0 1007801
02:00+13з2673100 0.0 1008209
05:00+11з128487 0.0 100948
08:00+17зсз4115648 0.0 1009941
11:00+14зсз127973 0.3 1010113
14:00+22зсз363824 0.0 10081299
17:00+26з3529100 0.0 10072914
20:00+23з2646100 0.0 1007217